This is the latest recevied weather packets stored in our database for station/object YM2KA-13. If no packets are shown the sender has not sent any weather packets the latest 10 day(s).
| Time | Temp. | Humidity | Pressure | Rain* | Wind** | Luminosity | Snow |
|---|---|---|---|---|---|---|---|
| 1788263594 | 28.33° C | 25% | 1009.6 hPa | 0 mm | - | - | - |
| 1788263472 | 28.33° C | 23% | 1009.6 hPa | 0 mm | - | - | - |
| 1788262873 | 28.33° C | 26% | 1009.7 hPa | 0 mm | - | - | - |
| 1788262691 | 27.78° C | 28% | 1009.7 hPa | 0 mm | - | - | - |
| 1788262274 | 28.33° C | 29% | 1009.9 hPa | 0 mm | - | - | - |
| 1788261787 | 28.33° C | 30% | 1009.9 hPa | 0 mm | - | - | - |
| 1788261675 | 28.33° C | 30% | 1009.9 hPa | 0 mm | - | - | - |
| 1788261077 | 28.33° C | 30% | 1010.1 hPa | 0 mm | - | - | - |
| 1788260894 | 28.33° C | 30% | 1010.1 hPa | 0 mm | - | - | - |
| 1788260477 | 28.33° C | 32% | 1010.2 hPa | 0 mm | - | - | - |
| 1788259989 | 27.78° C | 31% | 1010.2 hPa | 0 mm | - | - | - |
| 1788259877 | 27.78° C | 30% | 1010.2 hPa | 0 mm | - | - | - |
| 1788259279 | 28.33° C | 33% | 1010.3 hPa | 0 mm | - | - | - |
| 1788259086 | 27.78° C | 34% | 1010.2 hPa | 0 mm | - | - | - |
| 1788258679 | 27.78° C | 35% | 1010.2 hPa | 0 mm | - | - | - |
| 1788258193 | 26.67° C | 41% | 1010.2 hPa | 0 mm | - | - | - |
| 1788258071 | 26.67° C | 40% | 1010.2 hPa | 0 mm | - | - | - |
| 1788257472 | 26.67° C | 42% | 1010.1 hPa | 0 mm | - | - | - |
| 1788257289 | 26.67° C | 42% | 1010.2 hPa | 0 mm | - | - | - |
| 1788256873 | 26.67° C | 43% | 1010.3 hPa | 0 mm | - | - | - |
| 1788256386 | 26.11° C | 43% | 1010.3 hPa | 0 mm | - | - | - |
| 1788256274 | 26.11° C | 43% | 1010.2 hPa | 0 mm | - | - | - |
| 1788255676 | 26.11° C | 45% | 1010.2 hPa | 0 mm | - | - | - |
| 1788255493 | 26.11° C | 45% | 1010.2 hPa | 0 mm | - | - | - |
| 1788255076 | 26.67° C | 44% | 1010.3 hPa | 0 mm | - | - | - |
* Rain latest hour (hover to see other rain measurements)
** Current wind speed in m/s (hover to see current wind gust speed)